Flag for U.S.A. Weather past 2 weeks in Cape Canaveral, Florida, U.S.A.

Now
82 °F

Passing clouds.


Feels Like: 91 °F
Forecast: 78 / 90 °F
Wind: 6 mph from Southwest

Location: Cape Kennedy

Current Time: Aug 21, 2014 at 2:24:48 AM

Latest Report: Aug 21, 2014 at 1:58 AM


Visibility: 10 mi

Pressure: 30.10 "Hg

Humidity: 87%

Dew point: 78 °F

Location of Cape CanaveralLocation

Historic Weather in Cape Canaveral — Graph

°F

Cape Canaveral temperature yesterday

Maximum temperature yesterday: 91 °F (at 12:58 PM)
Minimum temperature yesterday: 74 °F (at 6:58 AM)
Average temperature yesterday: 84 °F

Past Weeks' High & Low Weather Summary

 TemperatureHumidityPressure
High94 °F (Aug 12, 3:58 PM)100% (Aug 15, 5:02 PM)30.14 "Hg (Aug 15, 5:02 PM)
Low72 °F (Aug 8, 5:58 AM)44% (Aug 12, 3:58 PM)29.94 "Hg (Aug 12, 4:58 PM)
Average81 °F82%30.03 "Hg
* Reported Aug 6 12:58 AM — Aug 21 12:58 AM, Cape Canaveral, Weather by CustomWeather, © 2014

Note: Actual official high and low records may vary slightly from our data, if they occured in-between our weather recording intervals... More about our weather records

Advertising

Cape Canaveral weather history for previous 24 hours

 ConditionsComfort  
Time TempWeatherWind HumidityBarometerVisibility
12:58 AM
Aug 21
82 °FPassing clouds.3 mph87%30.11 "Hg10 mi
11:58 PM
Aug 20
82 °FPassing clouds.5 mph86%30.11 "Hg10 mi
10:58 PM82 °FPassing clouds.7 mph88%30.10 "Hg10 mi
9:58 PM82 °FClear.5 mph88%30.09 "Hg10 mi
8:58 PM83 °FClear.7 mph84%30.06 "Hg10 mi
7:58 PM83 °FSunny.6 mph81%30.05 "Hg10 mi
6:58 PM86 °FSunny.10 mph71%30.04 "Hg10 mi
5:58 PM86 °FSunny.9 mph68%30.04 "Hg10 mi
4:58 PM88 °FSunny.8 mph63%30.04 "Hg10 mi
3:58 PM89 °FSunny.9 mph61%30.05 "Hg10 mi
2:58 PM89 °FSunny.6 mph64%30.06 "Hg10 mi
1:58 PM90 °FSunny.8 mph64%30.08 "Hg10 mi
12:58 PM91 °FSunny.3 mph57%30.10 "Hg10 mi
11:58 AM90 °FSunny.5 mph56%30.11 "Hg10 mi
10:58 AM88 °FSunny.5 mph65%30.10 "Hg10 mi
9:58 AM86 °FSunny.6 mph73%30.09 "Hg10 mi
8:58 AM84 °FSunny.5 mph79%30.08 "Hg10 mi
7:58 AM76 °FSunny.No wind93%30.06 "Hg10 mi
6:58 AM74 °FClear.2 mph95%30.04 "Hg10 mi
5:58 AM76 °FThundershowers. Clear.1 mph93%30.02 "Hg10 mi
4:58 AM78 °FPassing clouds.No wind87%30.00 "Hg10 mi
3:58 AM80 °FClear.5 mph86%29.99 "Hg10 mi
2:58 AM81 °FClear.3 mph85%30.00 "Hg10 mi
Weather by CustomWeather, © 2014

See weather overviewHow to use our weather pages